Regional Weather Roundup
Issued by NWS

Home | Current Version | Previous Version | Text Only | Print | Product List | Glossary Off
Versions: 1 2 3 4 5 6 7 8 9 10 11 12 13 14 15 16 17 18 19 20 21 22 23 24 25 26 27 28 29 30 31 32 33 34 35 36 37 38 39 40 41 42 43 44 45 46 47 48 49 50

000
ASUS43 KMPX 191701
RWRMN
WEATHER ROUNDUP FOR MINNESOTA
NATIONAL WEATHER SERVICE TWIN CITIES/CHANHASSEN MN
1200 PM CDT SAT AUG 19 2017


NOTE: "FAIR" INDICATES FEW OR NO CLOUDS BELOW 12,000 FEET WITH NO
SIGNIFICANT WEATHER AND/OR OBSTRUCTIONS TO VISIBILITY. N/A MEANS
CURRENT SKY AND/OR WEATHER CONDITIONS ARE NOT AVAILABLE.

MNZ060>063-068>070-191800-
   Twin Cities Metro

CITY           SKY/WX    TMP DP  RH WIND       PRES   REMARKS
TWIN CITIES    SUNNY     73  60  63 W7        29.97F
ST PAUL        SUNNY     73  61  65 SW7       29.96F
CRYSTAL        SUNNY     74  58  57 W9        29.95F
BLAINE         MOSUNNY   75  61  60 S12       29.96F
LAKEVILLE      SUNNY     73  63  68 S5        29.97F
EDEN PRAIRIE   SUNNY     72  62  71 SW6       29.96F
SOUTH ST PAUL  SUNNY     73  62  66 W3        29.96F
LAKE ELMO      FAIR      73  63  68 SW6       29.98S
$$
MNZ001>005-007-008-013>017-022>024-027-028-191800-
   Northwest Minnesota

CITY           SKY/WX    TMP DP  RH WIND       PRES   REMARKS
BEMIDJI        SUNNY     77  57  50 SW8       29.89F
HALLOCK        SUNNY     79  59  50 S9        29.78F
ROSEAU         SUNNY     81  61  50 S10       29.81F
WARROAD        SUNNY     77  64  65 SW6       29.82F
CROOKSTON      SUNNY     79  61  53 S12       29.83F
FOSSTON        SUNNY     77  57  50 S8        29.88S
DETROIT LAKES  SUNNY     73  61  64 SW7       29.92S
MOORHEAD       SUNNY     73  63  68 S9        29.88S
PARK RAPIDS    SUNNY     77  61  57 SW7       29.91F
MAHNOMEN       FAIR      74  64  68 S10       29.88F
$$
MNZ006-009>011-018-025>026-191800-
   North Central Minnesota

CITY           SKY/WX    TMP DP  RH WIND       PRES   REMARKS
BAUDETTE       SUNNY     80  56  43 SW8       29.83F
FLAG ISLAND    SUNNY     75  63  64 S6        29.80S
INTL FALLS     SUNNY     76  59  55 W7        29.85F
WASKISH        MOSUNNY   75  61  60 SW7       29.87S
BIG FORK       SUNNY     79  61  53 SW10      29.89S
LONGVILLE      SUNNY     75  63  64 SW6       29.91F
GRAND RAPIDS   SUNNY     76  62  62 VRB7      29.93S
CRANE LAKE     SUNNY     75  61  60 SW5       29.88S
ORR            SUNNY     75  59  57 W5        29.86S
COOK           SUNNY     73  63  68 W6        29.89F
WALKER         FAIR      75  60  59 SW12      29.90F
$$
MNZ012-019>021-037-191800-
   Northeast Minnesota

CITY           SKY/WX    TMP DP  RH WIND       PRES   REMARKS
DULUTH         SUNNY     76  60  57 W10       29.91S
ELY            SUNNY     73  57  56 W6        29.89S
HIBBING        SUNNY     74  60  61 VRB6      29.90S
EVELETH        SUNNY     73  61  66 CALM      29.91S
DULUTH HARBOR  SUNNY     79  66  65 SW5       29.89S
GRAND MARAIS     N/A     69  63  81 W8        29.83S
$$
MNZ029>031-032-039>041-046>048-054>057-064-191800-
   West Central Minnesota

CITY           SKY/WX    TMP DP  RH WIND       PRES   REMARKS
FERGUS FALLS   SUNNY     75  63  64 S10       29.90S
WHEATON        SUNNY     75  63  64 SE10      29.91F
MORRIS         SUNNY     75  63  64 S9        29.92F
ALEXANDRIA     SUNNY     74  61  63 SW8       29.96S
ELBOW LAKE     FAIR      74  63  67 SE9       29.92F HAZE
WADENA         SUNNY     75  61  60 S6        29.92S
GLENWOOD       SUNNY     73  59  60 S9        29.96S
APPLETON       SUNNY     75  63  64 S7        29.92F
BENSON         SUNNY     75  63  64 S7        29.95F
ORTONVILLE     SUNNY     75  61  60 MISG      29.92S
MADISON        SUNNY     72  72 100 S8        29.93F
WILLMAR        FAIR      72  64  78 S5        29.97F
$$
MNZ033>034-036-042>043-049>051-058-059-191800-
   Central Minnesota

CITY           SKY/WX    TMP DP  RH WIND       PRES   REMARKS
ST CLOUD       MOSUNNY   75  62  64 SW7       29.95F
SAUK CENTRE    FAIR      73  61  64 S8        29.95F
PAYNESVILLE    SUNNY     73  64  73 S8        29.97S
AITKIN         SUNNY     75  63  64 SW6       29.92S
PINE RIVER     SUNNY     72  57  60 W5        29.95F
BRAINERD       SUNNY     75  63  66 SW9       29.94S
STAPLES        SUNNY     75  61  60 SW5       29.93S
LONG PRAIRIE   FAIR      72  61  68 SE3       29.95F
LITTLE FALLS   SUNNY     73  59  60 S3        29.95S
LITCHFIELD     SUNNY     73  64  73 SE5       29.97F
BUFFALO        SUNNY     72  61  69 S6        29.98S
MAPLE LAKE     SUNNY     75  66  73 SW3       29.97F
HUTCHINSON     SUNNY     68  64  88 S5        29.99S
$$
MNZ037-044-045-052-053-191800-
   East Central Minnesota

CITY           SKY/WX    TMP DP  RH WIND       PRES   REMARKS
PRINCETON      SUNNY     79  63  57 S8        29.95F
MORA           SUNNY     73  61  64 W7        29.96S
CAMBRIDGE      MOSUNNY   77  63  61 CALM      29.95F
RUSH CITY      SUNNY     74  61  62 W6        29.95S
MOOSE LAKE     SUNNY     75  61  60 CALM      29.91S
HINCKLEY       FAIR      77  64  65 SW7       29.94S
CLOQUET        SUNNY     77  57  50 W7        29.91F
MCGREGOR       SUNNY     73  61  64 W6        29.93S
$$
MNZ071>073-080-081-089-090-097-098-191800-
   Southwest Minnesota

CITY           SKY/WX    TMP DP  RH WIND       PRES   REMARKS
MONTEVIDEO     SUNNY     75  64  69 S7        29.94F
GRANITE FALLS  SUNNY     73  64  73 SE7       29.97F
CANBY          SUNNY     76  58  54 CALM      29.94F
MARSHALL       SUNNY     74  62  66 SE9       29.95F
REDWOOD FALLS  SUNNY     72  62  71 S7        29.96F
OLIVIA         SUNNY     70  63  78 S5        29.96S
PIPESTONE      SUNNY     73  61  64 SE7       29.96F
WINDOM         SUNNY     72  61  68 S3        29.98F
WORTHINGTON    SUNNY     72  62  71 VRB3      29.99S
JACKSON        SUNNY     72  61  68 CALM      29.99F
TRACY          SUNNY     74  65  72 SE7       29.96F
SLAYTON        SUNNY     71  58  62 SE5       29.99S
$$
MNZ065>067-074>077-082>085-091>093-191800-
   South Central Minnesota

CITY           SKY/WX    TMP DP  RH WIND       PRES   REMARKS
MANKATO        MOSUNNY   71  63  75 SW6       29.99F
NEW ULM        SUNNY     68  63  83 CALM      29.98S
ST JAMES       SUNNY     72  63  73 CALM      29.99S
FAIRMONT       SUNNY     72  62  71 VRB3      29.99F
GLENCOE        SUNNY     69  66  88 S7        29.97F
FARIBAULT      SUNNY     73  64  73 S7        29.99S
OWATONNA       SUNNY     73  64  73 SW5       29.98F
WASECA         SUNNY     72  63  73 S6        30.00F
ALBERT LEA     MOSUNNY   77  63  61 SW3       29.98F
$$
MNZ078>079-086>088-094>096-191800-
   Southeast Minnesota

CITY           SKY/WX    TMP DP  RH WIND       PRES   REMARKS
ROCHESTER      SUNNY     73  63  70 SW7       30.00S
RED WING       SUNNY     75  57  53 NW7       29.96S
STANTON        SUNNY     74  62  64 SW3       29.96F
DODGE CENTER   SUNNY     73  63  68 SW7       29.99F
WINONA         SUNNY     75  59  57 SW3       29.97F
AUSTIN           N/A     73  63  68 SW3       29.99S
PRESTON        SUNNY     73  57  57 SW6       30.00F
$$
ABBREVIATIONS USED IN REMARKS
   TC - TEMPERATURES IN CELSIUS
  WCI - WIND CHILL INDEX
   HX - HEAT INDEX
  VSB - VISIBILITY
$$




USA.gov is the U.S. government's official web portal to all federal, state and local government web resources and services.